Santa Fe, NM

4:19 PM MDT on July 29, 2016 (GMT -0600)
Santa Fe Municipal

Weather History for KSAF - September, 2012

Change the Weather History Date:

Thursday, September 27, 2012

  Actual Average Record
Temperature  
Mean Temperature 62 °F -  
Max Temperature 77 °F 72 °F 88 °F (2010)
Min Temperature 46 °F 48 °F 32 °F (1996)
Degree Days  
Heating Degree Days 4    
Growing Degree Days 12 (Base 50)    
Moisture  
Dew Point 38 °F    
Average Humidity 43    
Maximum Humidity 68    
Minimum Humidity 19    
Precipitation  
Precipitation 0.00 in - - ()
Sea Level Pressure  
Sea Level Pressure 29.96 in    
Wind  
Wind Speed 8 mph (SSE)    
Max Wind Speed 14 mph    
Max Gust Speed 23 mph    
Visibility 10 miles    
Events Rain    
Averages and records for this station are not official NWS values.
T = Trace of Precipitation, MM = Missing Value Source: NWS Daily Summary

Daily Weather History Graph

Daily Weather History Graph

Search for Another Location

Airport or City:

Trip Planner

Search our weather history database for the weather conditions in past years. The results will help you decide how hot, cold, wet, or windy it might be!

Date:

Astronomy

Sep. 27, 2012 Rise Set
Actual Time 6:56 AM MDT 6:53 PM MDT
Civil Twilight 6:31 AM MDT 7:18 PM MDT
Nautical Twilight 6:01 AM MDT 7:48 PM MDT
Astronomical Twilight 5:31 AM MDT 8:17 PM MDT
Moon 5:23 PM MDT (9/27) 4:32 AM MDT (9/27)
Length of Visible Light 12h 47m
Length of Day
11h 56m
Waxing Gibbous, 94% of the Moon is Illuminated
Sep 27
Waxing Gibbous
Sep 29
Full
Oct 8
Last Quarter
Oct 15
New
Oct 21
First Quarter

Hourly Weather History & Observations

Time (MDT) Temp. Windchill Dew Point Humidity Pressure Visibility Wind Dir Wind Speed Gust Speed Precip Events Conditions
12:53 AM 59.0 °F - 39.9 °F 49% 29.93 in 10.0 mi ESE 9.2 mph - N/A   Overcast
1:53 AM 57.9 °F - 41.0 °F 53% 29.94 in 10.0 mi ESE 8.1 mph - 0.00 in Rain Light Rain
2:53 AM 57.0 °F - 39.0 °F 51% 29.94 in 10.0 mi SSE 4.6 mph - 0.00 in   Clear
3:53 AM 54.0 °F - 39.0 °F 57% 29.95 in 10.0 mi Calm Calm - N/A   Scattered Clouds
4:53 AM 50.0 °F - 37.9 °F 63% 29.98 in 10.0 mi NNE 8.1 mph - N/A   Mostly Cloudy
5:53 AM 46.9 °F - 37.0 °F 68% 30.00 in 10.0 mi North 4.6 mph - N/A   Clear
6:53 AM 46.0 °F 43.1 °F 36.0 °F 68% 30.02 in 10.0 mi North 5.8 mph - N/A   Clear
7:53 AM 55.9 °F - 39.9 °F 55% 30.02 in 10.0 mi ESE 3.5 mph - N/A   Partly Cloudy
8:53 AM 63.0 °F - 43.0 °F 48% 30.01 in 10.0 mi SE 12.7 mph - N/A   Clear
9:53 AM 64.0 °F - 43.0 °F 46% 30.01 in 10.0 mi SSE 13.8 mph - N/A   Overcast
10:53 AM 66.0 °F - 43.0 °F 43% 30.01 in 10.0 mi South 9.2 mph - N/A   Mostly Cloudy
11:53 AM 70.0 °F - 41.0 °F 35% 29.99 in 10.0 mi South 10.4 mph - N/A   Clear
12:53 PM 72.0 °F - 39.0 °F 30% 29.96 in 10.0 mi SW 6.9 mph - N/A   Clear
1:53 PM 75.0 °F - 30.9 °F 20% 29.92 in 10.0 mi WNW 9.2 mph - N/A   Clear
2:53 PM 77.0 °F - 32.0 °F 19% 29.90 in 10.0 mi WSW 11.5 mph 19.6 mph N/A   Clear
3:53 PM 77.0 °F - 30.9 °F 19% 29.89 in 10.0 mi SW 8.1 mph 23.0 mph N/A   Clear
4:53 PM 75.9 °F - 30.0 °F 19% 29.90 in 10.0 mi West 9.2 mph 21.9 mph N/A   Clear
5:53 PM 73.9 °F - 28.9 °F 19% 29.91 in 10.0 mi WSW 10.4 mph - N/A   Clear
6:53 PM 70.0 °F - 32.0 °F 25% 29.94 in 10.0 mi SW 10.4 mph - N/A   Clear
7:53 PM 64.9 °F - 33.1 °F 31% 29.94 in 10.0 mi SSE 5.8 mph - N/A   Clear
8:53 PM 64.0 °F - 46.9 °F 54% 29.95 in 10.0 mi SE 9.2 mph - N/A   Clear
9:53 PM 62.1 °F - 46.0 °F 56% 29.98 in 10.0 mi ESE 8.1 mph - N/A   Partly Cloudy
10:53 PM 62.1 °F - 46.0 °F 56% 29.97 in 10.0 mi ESE 6.9 mph - N/A   Mostly Cloudy
11:53 PM 61.0 °F - 46.0 °F 58% 29.96 in 10.0 mi East 5.8 mph - N/A   Overcast